Lander, WY

10:05 AM MDT on May 27, 2017 (GMT -0600)
Hunt

Weather History for KLND - March, 2013

Change the Weather History Date:

Saturday, March 16, 2013

  Actual Average Record
Temperature  
Mean Temperature 45 °F 36 °F  
Max Temperature 56 °F 48 °F 69 °F (1994)
Min Temperature 33 °F 24 °F -23 °F (1906)
Degree Days  
Heating Degree Days 20 29  
Month to date heating degree days 432 511  
Since 1 July heating degree days 5801 6215  
Cooling Degree Days 0 0  
Month to date cooling degree days 0 0  
Year to date cooling degree days 0 0  
Moisture  
Dew Point 19 °F    
Average Humidity 46    
Maximum Humidity 70    
Minimum Humidity 21    
Precipitation  
Precipitation 0.00 in 0.03 in 0.81 in (1987)
Month to date precipitation T 0.49  
Year to date precipitation 1.98 1.48  
Snow  
Snow 0.00 in 0.50 in - ()
Month to date snowfall T 7.2  
Since 1 July snowfall 52.2 60.8  
Snow Depth 0.00 in    
Sea Level Pressure  
Sea Level Pressure 29.81 in    
Wind  
Wind Speed 8 mph (WNW)    
Max Wind Speed 16 mph    
Max Gust Speed 21 mph    
Visibility 10 miles    
Events      
T = Trace of Precipitation, MM = Missing Value Source: NWS Daily Summary

Daily Weather History Graph

Daily Weather History Graph

Search for Another Location

Airport or City:

Trip Planner

Search our weather history database for the weather conditions in past years. The results will help you decide how hot, cold, wet, or windy it might be!

Date:

Astronomy

Mar. 16, 2013 Rise Set
Actual Time 7:24 AM MDT 7:22 PM MDT
Civil Twilight 6:56 AM MDT 7:51 PM MDT
Nautical Twilight 6:23 AM MDT 8:24 PM MDT
Astronomical Twilight 5:50 AM MDT 8:57 PM MDT
Moon 9:49 AM MDT (3/16) No Moon Set
Length of Visible Light 12h 54m
Length of Day
11h 58m
Waxing Crescent, 23% of the Moon is Illuminated
Mar 16
Waxing Crescent
Mar 19
First Quarter
Mar 27
Full
Apr 2
Last Quarter
Apr 10
New

Hourly Weather History & Observations

Time (MDT) Temp. Windchill Dew Point Humidity Pressure Visibility Wind Dir Wind Speed Gust Speed Precip Events Conditions
12:53 AM 42.1 °F 40.2 °F 21.0 °F 43% 29.88 in 10.0 mi East 3.5 mph - N/A   Clear
1:53 AM 39.9 °F 33.4 °F 19.9 °F 45% 29.86 in 10.0 mi West 10.4 mph - N/A   Clear
2:53 AM 39.0 °F 33.4 °F 19.9 °F 46% 29.86 in 10.0 mi West 8.1 mph - N/A   Clear
3:53 AM 37.9 °F 35.5 °F 19.0 °F 47% 29.84 in 10.0 mi West 3.5 mph - N/A   Clear
4:53 AM 35.1 °F 32.2 °F 21.0 °F 57% 29.84 in 10.0 mi WNW 3.5 mph - N/A   Clear
5:53 AM 34.0 °F 27.2 °F 24.1 °F 67% 29.86 in 10.0 mi West 8.1 mph - N/A   Clear
6:53 AM 34.0 °F 25.5 °F 25.0 °F 70% 29.88 in 10.0 mi WNW 11.5 mph - N/A   Clear
7:53 AM 35.1 °F 27.4 °F 25.0 °F 67% 29.88 in 10.0 mi NW 10.4 mph - N/A   Clear
8:53 AM 36.0 °F 26.7 °F 26.1 °F 67% 29.90 in 10.0 mi NW 15.0 mph - N/A   Clear
9:53 AM 37.9 °F 30.5 °F 26.1 °F 62% 29.90 in 10.0 mi NNW 11.5 mph - N/A   Clear
10:53 AM 39.9 °F 36.7 °F 25.0 °F 55% 29.88 in 10.0 mi WNW 4.6 mph - N/A   Clear
11:53 AM 45.0 °F 39.7 °F 25.0 °F 46% 29.87 in 10.0 mi NW 10.4 mph - N/A   Clear
12:53 PM 46.9 °F - 25.0 °F 42% 29.83 in 10.0 mi North 5.8 mph - N/A   Clear
1:53 PM 51.1 °F - 24.1 °F 35% 29.79 in 10.0 mi NE 5.8 mph - N/A   Clear
2:53 PM 51.1 °F - 21.9 °F 32% 29.77 in 10.0 mi Variable 5.8 mph - N/A   Clear
3:53 PM 53.1 °F - 21.0 °F 29% 29.74 in 10.0 mi SE 5.8 mph - N/A   Clear
4:53 PM 55.9 °F - 18.0 °F 23% 29.73 in 10.0 mi North 5.8 mph - N/A   Clear
5:53 PM 54.0 °F - 16.0 °F 22% 29.73 in 10.0 mi ESE 3.5 mph - N/A   Clear
6:53 PM 51.1 °F - 12.0 °F 21% 29.74 in 10.0 mi West 6.9 mph - N/A   Clear
7:53 PM 45.0 °F 39.7 °F 9.0 °F 23% 29.76 in 10.0 mi SW 10.4 mph - N/A   Clear
8:53 PM 45.0 °F 38.9 °F 9.0 °F 23% 29.75 in 10.0 mi SW 12.7 mph - N/A   Clear
9:53 PM 45.0 °F 43.5 °F 8.1 °F 22% 29.73 in 10.0 mi West 3.5 mph - N/A   Clear
10:53 PM 45.0 °F 39.3 °F 9.0 °F 23% 29.70 in 10.0 mi WSW 11.5 mph - N/A   Clear
11:53 PM 45.0 °F 40.6 °F 10.9 °F 25% 29.67 in 10.0 mi WNW 8.1 mph 20.7 mph N/A   Partly Cloudy